[[{"header":{"parameterUnit":"m.s-1","parameterCategory":1,"la1":30.2991,"la2":30.254,"lo1":-89.0895,"lo2":-89.0444,"dy":0.0017,"dx":0.0017,"nx":28,"ny":28,"refTime":"2024-07-20T03:00:00:Z","depth":0,"parameterNumber":2,"parameterNumberName":"U-component_of_WINDS"},"data":[0,0,0,0,0,0,0,0,0,0,0,0,0,0,0,0,0,0,0,0,0,0,0,0,0,0,0,0,0,0,0,0,0,0,0,0,0,0,0,0,0,0,0,0,0,0,0,0,0,0,0,0,0,0,0,0,0,0,-0.9045,-0.9046,0,-0.9055,-0.9055,-0.9055,-0.9051,-0.9051,-0.9051,-0.905,-0.9059,-0.906,-0.906,0,0,0,0,0,0,0,0,0,0,0,0,0,-0.9022,-0.9022,-0.9045,-0.9046,-0.9046,-0.9055,-0.9055,-0.9055,-0.9051,-0.9051,-0.9051,-0.905,-0.9059,-0.906,-0.906,0,0,0,0,0,0,0,0,0,0,0,0,0,-0.9032,-0.9023,-0.9045,-0.9045,-0.9045,-0.9055,-0.9055,-0.9055,-0.9051,-0.9051,-0.9051,-0.905,-0.9059,-0.906,-0.906,-0.9072,0,0,-0.9063,-0.9063,0,0,0,0,0,0,0,0,-0.9031,-0.9033,-0.9045,-0.9045,-0.9045,-0.9052,-0.905,-0.9061,-0.9051,-0.9049,-0.905,-0.905,-0.9057,-0.9058,-0.906,-0.9072,-0.9073,-0.9063,-0.9063,-0.9063,-0.9064,0,0,0,0,0,0,0,-0.9031,-0.9032,-0.9049,-0.9045,-0.9045,-0.9044,-0.9045,-0.9052,-0.9055,-0.9049,-0.9049,-0.905,-0.9057,-0.906,-0.9061,-0.9073,-0.9063,-0.9063,-0.9064,-0.9064,-0.9093,-0.9094,0,0,0,0,0,0,-0.903,-0.9032,-0.9049,-0.905,-0.9037,-0.9044,-0.9045,-0.905,-0.9055,-0.9055,-0.905,-0.905,-0.9059,-0.906,-0.9061,-0.9074,-0.9063,-0.9064,-0.9064,-0.9093,-0.9093,-0.9094,0,0,0,0,0,0,-0.903,-0.9032,-0.9049,-0.9041,-0.9043,-0.9045,-0.905,-0.905,-0.9053,-0.9056,-0.9056,-0.9053,-0.9059,-0.906,-0.9069,-0.9074,-0.9064,-0.9065,-0.9093,-0.9093,-0.9094,-0.9101,0,0,0,0,0,0,-0.9029,-0.9032,-0.9036,-0.9041,-0.9043,-0.9057,-0.905,-0.9051,-0.9054,-0.9054,-0.9058,-0.9058,-0.9058,-0.9068,-0.907,-0.9075,-0.9065,-0.9092,-0.9093,-0.9093,-0.91,-0.9101,-0.9103,0,0,0,0,0,-0.9028,-0.9038,-0.9037,-0.9039,-0.9049,-0.9057,-0.9059,-0.9059,-0.9055,-0.9059,-0.9061,-0.9058,-0.9073,-0.9069,-0.9071,-0.9077,-0.9092,-0.9093,-0.9093,-0.9099,-0.9101,-0.9103,0,0,0,0,0,0,-0.9034,-0.9038,-0.9037,-0.9049,-0.9053,-0.9057,-0.9062,-0.9061,-0.9066,-0.9065,-0.9064,-0.9065,-0.9075,-0.9076,-0.9071,-0.9087,-0.9082,-0.9083,-0.9086,-0.9087,-0.9089,-0.9088,-0.9066,0,0,0,0,0,-0.9036,-0.9043,-0.9047,-0.9056,-0.9058,-0.906,-0.9063,-0.9063,-0.9067,-0.9069,-0.9071,-0.9075,-0.908,-0.9084,-0.9089,-0.91,-0.9101,-0.9105,-0.9106,-0.9107,-0.9108,-0.9114,-0.9115,-0.9097,-0.9097,-0.9097,0,0,-0.9042,-0.9045,-0.9049,-0.9057,-0.9061,-0.9067,-0.9061,-0.9069,-0.9073,-0.907,-0.9078,-0.908,-0.9084,-0.9094,-0.9098,-0.9096,-0.9114,-0.9108,-0.9109,-0.911,-0.9115,-0.9116,-0.9118,-0.9097,-0.9097,-0.9097,0,0,-0.9055,-0.9058,-0.9066,-0.907,-0.9074,-0.9075,-0.9077,-0.9081,-0.9082,-0.9091,-0.9088,-0.9094,-0.9103,-0.9106,-0.9109,-0.9122,-0.912,-0.9124,-0.9131,-0.9136,-0.9138,-0.9139,-0.9143,-0.9145,-0.9125,-0.9125,-0.9125,0,-0.9061,-0.9071,-0.9071,-0.9078,-0.9081,-0.9079,-0.9087,-0.909,-0.9096,-0.9098,-0.9095,-0.9107,-0.9109,-0.9119,-0.9123,-0.9125,-0.9127,-0.9124,-0.9137,-0.9139,-0.914,-0.9144,-0.9146,-0.9125,-0.9125,-0.9125,-0.9125,0,-0.9078,-0.9085,-0.909,-0.9097,-0.9101,-0.9108,-0.9109,-0.9113,-0.9112,-0.9113,-0.9121,-0.9124,-0.913,-0.9132,-0.9132,-0.9142,-0.914,-0.9137,-0.9132,-0.9142,-0.9146,-0.9148,-0.9126,-0.9126,-0.9126,-0.9126,0,0,-0.9095,-0.9101,-0.9103,-0.9105,-0.911,-0.9115,-0.9122,-0.9128,-0.9131,-0.9135,-0.9141,-0.9149,-0.9146,-0.9149,-0.9148,-0.9153,-0.9163,-0.9149,-0.9149,-0.9151,-0.9174,-0.9176,-0.9178,-0.9161,-0.9161,-0.9162,-0.9174,0,-0.9108,-0.9121,-0.9121,-0.9133,-0.9139,-0.9136,-0.9142,-0.9145,-0.9146,-0.9151,-0.9152,-0.9157,-0.9153,-0.9155,-0.9159,-0.9161,-0.9167,-0.916,-0.9166,-0.9166,-0.9165,-0.918,-0.9183,-0.9194,-0.9175,-0.9176,-0.9176,0,-0.9126,-0.913,-0.9143,-0.9146,-0.9148,-0.9154,-0.9159,-0.9163,-0.9167,-0.9167,-0.917,-0.9169,-0.9175,-0.917,-0.9179,-0.9174,-0.9176,-0.9177,-0.9177,-0.9178,-0.9172,-0.9181,-0.9198,-0.92,-0.9178,-0.9178,-0.9178,0,-0.9137,-0.9146,-0.9154,-0.9157,-0.9161,-0.9165,-0.9166,-0.9169,-0.9173,-0.9177,-0.9179,-0.9183,-0.9186,-0.9189,-0.9189,-0.9185,-0.9198,-0.9192,-0.9198,-0.9198,-0.9201,-0.9201,-0.9218,-0.9203,-0.9203,-0.9203,-0.9203,0,-0.9151,-0.9159,-0.9159,-0.9165,-0.9173,-0.9172,-0.918,-0.9181,-0.9184,-0.9189,-0.9187,-0.9191,-0.9191,-0.9195,-0.9195,-0.9202,-0.9203,-0.9204,-0.9203,-0.9204,-0.9204,-0.9205,-0.9205,-0.9203,-0.9203,-0.9203,-0.9203,0,-0.9165,-0.9166,-0.9175,-0.9178,-0.9179,-0.9185,-0.9187,-0.9192,-0.9192,-0.9198,-0.92,-0.9201,-0.9206,-0.9206,-0.9212,-0.9211,-0.922,-0.9219,-0.9219,-0.9219,-0.9225,-0.9224,-0.9244,-0.9246,-0.9229,-0.9229,-0.9229,0,-0.9175,-0.9181,-0.9184,-0.9187,-0.9189,-0.9195,-0.9198,-0.9197,-0.92,-0.9204,-0.9208,-0.9213,-0.9217,-0.9226,-0.9227,-0.9231,-0.923,-0.9236,-0.9231,-0.9231,-0.923,-0.9229,-0.923,-0.9238,-0.9238,-0.9238,-0.9238,0,-0.9191,-0.9191,-0.9196,-0.9201,-0.9205,-0.9208,-0.9212,-0.9214,-0.9214,-0.9218,-0.9223,-0.9226,-0.9232,-0.9237,-0.9241,-0.9242,-0.924,-0.924,-0.9241,-0.9242,-0.9242,-0.9242,-0.9222,-0.924,-0.9239,-0.9239,-0.9239,-0.9239,-0.9203,-0.9208,-0.9211,-0.9216,-0.9219,-0.9222,-0.9226,-0.9227,-0.9231,-0.9236,-0.9236,-0.9241,-0.9244,-0.9249,-0.9251,-0.9255,-0.9253,-0.9255,-0.9256,-0.9256,-0.9257,-0.9241,-0.9256,-0.9256,-0.9256,-0.9256,-0.9256,0,-0.922,-0.9221,-0.9226,-0.9231,-0.9235,-0.9232,-0.9235,-0.9239,-0.9244,-0.9247,-0.9251,-0.9256,-0.9261,-0.9262,-0.9266,-0.9269,-0.9268,-0.9271,-0.927,-0.9271,-0.9259,-0.9257,-0.9271,-0.9271,-0.9271,-0.9271,-0.9271,-0.9271,-0.9229,-0.9236,-0.9236,-0.9245,-0.9247,-0.9252,-0.9254,-0.9257,-0.9259,-0.9266,-0.9269,-0.927,-0.9272,-0.9276,-0.928,-0.928,-0.9282,-0.9284,-0.9284,-0.9273,-0.9271,-0.927,-0.9268,-0.9285,-0.9285,-0.9295,-0.9296,-0.9296]},{"header":{"parameterUnit":"m.s-1","parameterCategory":1,"la1":30.2991,"la2":30.254,"lo1":-89.0895,"lo2":-89.0444,"dy":0.0017,"dx":0.0017,"nx":28,"ny":28,"refTime":"2024-07-20T03:00:00:Z","depth":0,"parameterNumber":3,"parameterNumberName":"V-component_of_WINDS"},"data":[0,0,0,0,0,0,0,0,0,0,0,0,0,0,0,0,0,0,0,0,0,0,0,0,0,0,0,0,0,0,0,0,0,0,0,0,0,0,0,0,0,0,0,0,0,0,0,0,0,0,0,0,0,0,0,0,0,0,1.4378,1.4379,0,1.4434,1.4435,1.4435,1.4451,1.4451,1.445,1.445,1.4504,1.4506,1.4507,0,0,0,0,0,0,0,0,0,0,0,0,0,1.428,1.4281,1.4378,1.4379,1.438,1.4434,1.4435,1.4436,1.4451,1.4451,1.445,1.445,1.4503,1.4505,1.4508,0,0,0,0,0,0,0,0,0,0,0,0,0,1.4328,1.4282,1.4378,1.4394,1.4396,1.4434,1.4435,1.4436,1.4451,1.4451,1.445,1.445,1.4503,1.4505,1.4508,1.4533,0,0,1.4516,1.4517,0,0,0,0,0,0,0,0,1.4325,1.4331,1.4391,1.4393,1.4395,1.4435,1.442,1.4468,1.4451,1.443,1.445,1.445,1.4481,1.4486,1.4497,1.4535,1.4538,1.4516,1.4517,1.4519,1.4519,0,0,0,0,0,0,0,1.4321,1.4329,1.44,1.4392,1.4394,1.4397,1.4403,1.4429,1.4457,1.4432,1.4433,1.444,1.4482,1.4494,1.4498,1.4539,1.4516,1.4518,1.452,1.4521,1.4597,1.4598,0,0,0,0,0,0,1.4316,1.4326,1.4398,1.4402,1.4358,1.4399,1.4406,1.4423,1.4457,1.4462,1.444,1.444,1.449,1.4495,1.45,1.453,1.4519,1.4521,1.4522,1.4597,1.4597,1.4598,0,0,0,0,0,0,1.4314,1.4322,1.4396,1.4364,1.4374,1.4401,1.442,1.4424,1.4436,1.4464,1.4468,1.4448,1.449,1.4497,1.4524,1.4533,1.4522,1.4525,1.4596,1.4597,1.4598,1.4592,0,0,0,0,0,0,1.4311,1.4322,1.4333,1.4365,1.4376,1.4421,1.442,1.4426,1.4441,1.4442,1.4472,1.4476,1.449,1.452,1.4527,1.4536,1.4527,1.4596,1.4597,1.4598,1.4591,1.4592,1.4593,0,0,0,0,0,1.4307,1.4329,1.4333,1.4342,1.439,1.4421,1.4427,1.4444,1.4442,1.4452,1.4469,1.4475,1.4531,1.4523,1.4531,1.454,1.4595,1.4596,1.4597,1.4591,1.4592,1.4593,0,0,0,0,0,0,1.4296,1.4333,1.4339,1.4371,1.4393,1.4424,1.4438,1.4445,1.4467,1.4467,1.4486,1.4492,1.4518,1.4532,1.4523,1.4565,1.4563,1.4565,1.4555,1.4556,1.4557,1.4553,1.4529,0,0,0,0,0,1.4298,1.4321,1.4352,1.4377,1.4388,1.4411,1.4425,1.4436,1.4459,1.4468,1.4487,1.4508,1.453,1.4544,1.4566,1.4593,1.4599,1.4603,1.4604,1.4605,1.4607,1.462,1.4622,1.4602,1.4602,1.4602,0,0,1.4301,1.4324,1.4338,1.4375,1.4394,1.4416,1.4419,1.4443,1.4458,1.4471,1.4499,1.4513,1.4537,1.4564,1.4577,1.4577,1.4613,1.4606,1.4606,1.4608,1.4621,1.4623,1.4625,1.4602,1.4602,1.4602,0,0,1.4318,1.4338,1.4361,1.4379,1.4407,1.4421,1.4427,1.4456,1.4466,1.4494,1.4504,1.4522,1.456,1.4576,1.459,1.461,1.4615,1.4616,1.462,1.4633,1.4635,1.4636,1.4642,1.4644,1.4618,1.4618,1.4618,0,1.4318,1.4353,1.4371,1.4394,1.441,1.4423,1.4444,1.446,1.4493,1.4503,1.4502,1.4548,1.4566,1.4596,1.4601,1.4611,1.4616,1.4613,1.4633,1.4635,1.4636,1.4642,1.4644,1.4618,1.4618,1.4618,1.4618,0,1.4351,1.4375,1.4389,1.4421,1.4438,1.4461,1.448,1.4495,1.4503,1.4518,1.4544,1.4565,1.4591,1.4598,1.4607,1.4629,1.4628,1.463,1.4628,1.4638,1.4643,1.4646,1.4618,1.4618,1.4618,1.4618,0,0,1.4363,1.4404,1.4409,1.4423,1.4453,1.4471,1.4493,1.4518,1.453,1.4551,1.4568,1.4599,1.4601,1.4616,1.4626,1.4637,1.465,1.4638,1.4638,1.4638,1.4673,1.4671,1.4674,1.4654,1.4654,1.4655,1.4671,0,1.4383,1.4424,1.444,1.4472,1.4493,1.4504,1.4523,1.4542,1.4556,1.4574,1.4588,1.4609,1.461,1.4619,1.4631,1.4646,1.4657,1.4645,1.4668,1.4669,1.4662,1.4677,1.4675,1.469,1.4673,1.4674,1.4674,0,1.4412,1.4434,1.4469,1.4495,1.4504,1.4521,1.4544,1.4563,1.4584,1.4592,1.4608,1.4617,1.4638,1.4635,1.4663,1.4654,1.4664,1.4673,1.4673,1.4676,1.4672,1.4679,1.4695,1.4697,1.4678,1.4677,1.4677,0,1.4416,1.4454,1.448,1.4491,1.4523,1.4534,1.4547,1.4568,1.4582,1.4601,1.461,1.4632,1.4643,1.4659,1.4673,1.467,1.4699,1.4697,1.4705,1.4705,1.4711,1.471,1.4728,1.4718,1.4718,1.4718,1.4718,0,1.4436,1.4456,1.4482,1.4497,1.4519,1.4536,1.4557,1.4571,1.4589,1.4606,1.4617,1.4632,1.465,1.4667,1.4678,1.4698,1.4703,1.471,1.4712,1.4709,1.4708,1.4715,1.4715,1.4719,1.4719,1.4719,1.4719,0,1.4444,1.4462,1.449,1.4517,1.4525,1.454,1.4562,1.4576,1.4589,1.4611,1.4616,1.4636,1.4657,1.4672,1.4699,1.4706,1.4727,1.473,1.472,1.4721,1.4728,1.4727,1.4751,1.4755,1.4743,1.4743,1.4743,0,1.4455,1.4471,1.45,1.4513,1.4526,1.4546,1.456,1.4576,1.459,1.4615,1.4625,1.4647,1.4665,1.4696,1.4712,1.4731,1.4734,1.4741,1.4737,1.4733,1.4733,1.4732,1.4733,1.4742,1.4742,1.4742,1.4742,0,1.4473,1.4481,1.4501,1.4524,1.454,1.4559,1.4578,1.4587,1.4606,1.462,1.4642,1.4656,1.4682,1.4702,1.4723,1.4735,1.4741,1.4743,1.4746,1.4742,1.4735,1.4738,1.4721,1.4743,1.4742,1.4742,1.4742,1.4742,1.4483,1.4496,1.4519,1.454,1.4556,1.4573,1.4587,1.4602,1.462,1.4644,1.4652,1.4673,1.4692,1.4721,1.4733,1.4749,1.4749,1.4753,1.4754,1.4755,1.4754,1.4733,1.4752,1.4752,1.4752,1.4752,1.4752,0,1.45,1.4514,1.4534,1.456,1.4576,1.4581,1.4602,1.4615,1.4634,1.4651,1.4669,1.4692,1.4711,1.4728,1.4748,1.4757,1.476,1.4761,1.4761,1.4763,1.4753,1.4748,1.4758,1.4758,1.4758,1.4758,1.4758,1.4758,1.4511,1.4534,1.4544,1.4575,1.4589,1.4611,1.4622,1.4636,1.465,1.4676,1.4693,1.4704,1.4721,1.4741,1.4758,1.4763,1.4769,1.4769,1.4774,1.4765,1.4764,1.4763,1.4759,1.4771,1.4771,1.4783,1.4783,1.4783]}]]